Location: Peebles
(55.6412°N, 3.1714°W)
Time: 22:52:34
(UTC+00:00)

deb Agena D - Pass Details

Date: 29 September 2023
Orbit: 794 x 979 km, 99.8° (Epoch: 29 November)

Event Time Altitude Azimuth Distance (km) Brightness Sun altitude
Rises 01:01:35 0° 19° (NNE) 3,696 10.4 -36.6°
Reaches altitude 10° 01:04:08 10° 24° (NNE) 2,738 9.5 -36.6°
Enters shadow 01:07:56 37° 44° (NE) 1,474 7.6 -36.6°
